Location: M?digepalle
(16.1753°N, 80.3496°E)
Time: 08:50:44
(UTC+00:00)

Cosmos 2058 - Pass Details

Date: 29 October 2020
Orbit: 562 x 584 km, 82.5° (Epoch: 27 November)

Event Time Altitude Azimuth Distance (km) Brightness Sun altitude
Rises 12:49:17 0° 15° (NNE) 2,746 6.1 -10.1°
Reaches altitude 10° 12:51:48 10° 29° (NNE) 1,852 5.1 -10.7°
Maximum altitude 12:55:04 23° 83° (E) 1,212 3.9 -11.5°
Drops below altitude 10° 12:58:21 10° 137° (SE) 1,858 5.2 -12.3°
Sets 13:00:52 0° 151° (SSE) 2,757 6.2 -12.8°
